weather.gov     
National Weather Service

Regional Weather Roundup
NWS Homepage
This page is being discontinued on March 12, 2014.
The same data is available at this site. Please update your bookmarks.
Thank you, and we apologize for the inconvenience.
Please send an email to SR-SRH.Webmaster@noaa.gov with any concerns.


Current Version
Previous Version:    01  02  03  04  05  06  07  08  09  10  11  12  13  14  15  16  17  18  19  20  21  22  23  24  25  26  27  28  29  30  
   31  32  33  34  35  36  37  38  39  40  41  42  43  44  45  46  47  48  49  50  
[Printable]
467
ASUS44 KFWD 231915
RWRTX
NORTH TEXAS HOURLY WEATHER ROUNDUP
NATIONAL WEATHER SERVICE FORT WORTH TX
200 PM CDT SAT AUG 23 2014

NOTE: "FAIR" INDICATES FEW OR NO CLOUDS BELOW 12,000 FEET WITH NO
SIGNIFICANT WEATHER AND/OR OBSTRUCTIONS TO VISIBILITY.

TXZ118-119-232000-
DALLAS/FORT WORTH METROPLEX

CITY           SKY/WX    TMP DP  RH WIND       PRES   REMARKS
DFW AIRPORT    MOSUNNY   96  58  27 SE17      29.97F HX  95
DALLAS LOVE    SUNNY     96  58  27 S14       29.97F HX  95
FTW MEACHAM    SUNNY     99  58  25 MISG      29.96F HX  98
DAL-EXECUTIVE  SUNNY     98  57  25 SE12G20   29.97F HX  97
FTW-ALLIANCE   SUNNY     98  56  24 S9G18     29.96F HX  96
FTW-NAS-JRB    MOSUNNY  101  53  20 S13G24    30.00F HX  99
FTW-SPINKS     SUNNY     97  61  30 S10       29.99F HX  97
ARLINGTON      SUNNY     95  60  31 S10G21    29.98F HX  95
GRAND PRAIRIE  SUNNY     93  55  27 S9        29.99  HX  91
ADDISON        SUNNY     95  59  30 SE10      29.98F HX  94
MESQUITE       SUNNY     97  55  24 S12       29.98F HX  95
LANCASTER      SUNNY     97  59  28 S9        29.99F HX  97
$$

TXZ091>094-102>105-117-120-121-131>134-232000-
NORTH CENTRAL TEXAS

CITY           SKY/WX    TMP DP  RH WIND       PRES   REMARKS
SHRMAN/DENISON SUNNY     96  56  26 S10       29.99F HX  94
GAINESVILLE    SUNNY     93  63  36 SE14      29.99F HX  94
BOWIE          SUNNY     96  58  28 SE9G16    29.97F HX  95
BRIDGEPORT     SUNNY     97  45  16 S8        29.98F HX  93
DECATUR        SUNNY     95  54  25 S12G17    29.97F HX  93
DENTON         SUNNY     96  58  27 S8        29.96F HX  95
MCKINNEY       SUNNY     93  61  34 S10G21    29.98F HX  93
GREENVILLE     SUNNY     97  57  26 S10       29.99F HX  95
ROCKWALL       SUNNY     95  64  36 S12       29.97F HX  96
TERRELL        SUNNY     96  58  27 S10       29.99F HX  95
WAXAHACHIE     SUNNY     95  57  27 S9        29.99F HX  94
CLEBURNE       SUNNY     95  61  31 S8        30.00S HX  95
GRANBURY       SUNNY    100  50  19 SE9G16    29.97F HX  96
$$

TXZ083>090-098>101-113>116-127>130-139>142-154-155-232000-
WESTERN NORTH TEXAS

CITY           SKY/WX    TMP DP  RH WIND       PRES   REMARKS
WICHITA FALLS  MOSUNNY   99  55  23 S14G25    29.92F HX  97
WF-KICKAPOO    MOSUNNY  101  51  19 S12G21    29.94F HX  98
VERNON         MOSUNNY  100  49  17 S17G24    29.93S HX  97
ABILENE        MOSUNNY   94  50  22 S15G23    29.99F HX  91
ABILENE-DYESS  CLOUDY    93  54  26 S18       29.97F HX  90
BRECKENRIDGE   SUNNY     99  49  18 S8G20     29.96F HAZE    HX  96
GRAHAM         SUNNY    100  51  19 SE12G17   29.93F HX  97
MINERAL WELLS  SUNNY     98  54  22 SW15G21   29.95F HX  96
STEPHENVILLE   SUNNY     95  53  23 S6        30.02F HX  93
COMANCHE       SUNNY     96  51  21 S14G21    30.00F HX  93
BROWNWOOD      MOSUNNY   95  54  24 S15G21    29.99F HX  93
COLEMAN        MOSUNNY   93  52  24 S12G20    30.00F HX  90
BRADY          SUNNY     91  59  33 S13       30.01F HX  90
$$

TXZ143>147-156>162-174-175-232000-
CENTRAL TEXAS

CITY           SKY/WX    TMP DP  RH WIND       PRES   REMARKS
WACO           SUNNY     96  65  35 S13       29.98F HX  98
WACO-TSTC      SUNNY     95  64  36 SW10      29.98F HX  97
WACO-MCGREGOR  SUNNY     99  63  30 S14G21    29.98F HX 100
HILLSBORO      SUNNY     96  59  28 SE9G18    29.98F HX  96
CORSICANA      SUNNY     96  64  34 S12       29.99F HX  98
MEXIA          SUNNY     94  69  43 S9        29.99F HX 100
HEARNE           N/A     95  69  42 S7        29.99F HX 101
CAMERON        SUNNY     96  68  40 S9G16     29.98F HX 100
TEMPLE         SUNNY     95  64  36 S10G20    29.99F HX  97
KILLEEN        MOSUNNY   93  66  40 S9        29.99F HX  96
KILLEEN-SKYLRK SUNNY     95  66  38 S12G17    29.99F HX  98
FORT HOOD      MOSUNNY   97  64  33 E9        29.99F HX  99
GATESVILLE     SUNNY     95  63  34 S6        30.01F HAZE    HX  96
HAMILTON       SUNNY     96  58  28 S10G21    30.01F HX  95
LAMPASAS       SUNNY     96  66  37 SW7       29.99F HX  99
$$

TXZ095>097-106>112-122>126-135>138-148>153-164>167-232000-
EAST TEXAS

CITY           SKY/WX    TMP DP  RH WIND       PRES   REMARKS
PARIS          SUNNY     93  70  46 S9        30.00F HX  99
SULPHUR SPRNGS SUNNY     95  62  32 SE8       30.01F HAZE    HX  96
CLARKSVILLE    MOSUNNY   96  68  40 SE9       30.00F HX 100
MOUNT PLEASANT SUNNY     94  61  33 CALM      30.01F HX  94
GILMER         SUNNY     95  63  34 CALM      30.02  HX  96
MINEOLA        SUNNY     93  59  31 SW6       30.01F HX  92
TYLER          SUNNY     94  66  39 CALM      30.01F HX  97
LONGVIEW       SUNNY     94  65  38 SE10      30.00F HX  96
MARSHALL       SUNNY     96  65  36 S6        30.03F HX  99
ATHENS         SUNNY     91  66  43 S6G17     30.00F HX  94
PALESTINE      MOSUNNY   93  69  46 S8        30.02F HX  98
JACKSONVILLE   SUNNY     90  69  48 S6        30.05F HX  94
HENDERSON      SUNNY     93  64  37 SW3       30.03F HX  95
NACOGDOCHES    MOSUNNY   90  72  55 SW5       30.02F HX  96
LUFKIN         PTSUNNY   92  72  51 NW6       30.02F HX  99
$$

SUPPLEMENTAL OBSERVATIONS (CENTRAL)

CITY           SKY/WX    TMP DP  RH WIND       PRES   REMARKS
LAKE TEXOMA      N/A     93  57  29 S8          N/A  HX  92
CADDO GRASSLND   N/A     97  61  30 S9          N/A  HX  97
PAT MAYSE LAKE   N/A     91  64  40 SE9         N/A  HX  93
GREENVILLE       N/A     97  63  32 S9          N/A  HX  98
CEDAR HILL       N/A     99  59  26 S7G17       N/A  HX  98
PALESTINE        N/A     95  68  41 S6G14       N/A  HX  99
LAKE LIMESTONE   N/A     97  68  38 SE7         N/A  HX 101
MCGREGOR         N/A     99  59  26 SW7G17      N/A  HX  98
TEMPLE           N/A     95  64  36 S12         N/A  HX  97
$$

SUPPLEMENTAL OBSERVATIONS (WEST)

CITY           SKY/WX    TMP DP  RH WIND       PRES   REMARKS
MILLERS CREEK    N/A    100  55  22 S20G26      N/A  HX  99
POSSUM KINGDOM   N/A    100  46  16 S12         N/A  HX  96
LBJ GRASSLAND    N/A     99  57  25 SE12        N/A  HX  97
GRANBURY         N/A    100  50  18 SE12G20     N/A  HX  97
COMANCHE         N/A     97  57  26 S10G20      N/A  HX  95
HAMBY            N/A     97  46  17 S15G23      N/A  HX  93
IVIE RESERVOIR   N/A     99  55  23 S12G20      N/A  HX  97
$$

SUPPLEMENTAL OBSERVATIONS (EAST)

CITY           SKY/WX    TMP DP  RH WIND       PRES   REMARKS
TEXARKANA        N/A     97  64  34 SE3         N/A  HX  99
LINDEN           N/A     99  59  26 SE2G10      N/A  HX  98
CADDO LAKE       N/A     97  64  34 SW3         N/A  HX  99
GILMER           N/A     97  61  30 W5          N/A  HX  97
HENDERSON        N/A     95  66  38 W8          N/A  HX  98
N SABINE NF      N/A     95  72  46 MISG        N/A  HX 103
$$

SUPPLEMENTAL OBSERVATIONS ARE A COLLECTION OF AUTOMATED INSTRUMENTS
THAT ARE MAINTAINED BY A VARIETY OF FEDERAL AND STATE AGENCIES.
CERTAIN ELEMENTS...SUCH AS HUMIDITY VALUES AND SUSTAINED WIND
SPEEDS...MAY BE APPROXIMATED.





U.S. Dept. of Commerce
NOAA National Weather Service
1325 East West Highway
Silver Spring, MD 20910
E-mail: w-nws.webmaster@noaa.gov
Page last modified: May 16, 2007
NATIONAL WEATHER SERVICE: for Safety, for Work, for Fun - FOR LIFE